Location: Newark
(25.0000°N, 73.5000°E)
Time: 05:02:11
(UTC+00:00)

Altair - Pass Details

Date: 01 March 2021
Orbit: 1501 x 1683 km, 47.2° (Epoch: 12 April)

Event Time Altitude Azimuth Distance (km) Brightness Sun altitude
Rises 22:05:47 0° 308° (NW) 4,811 - -46.3°
Reaches altitude 10° 22:08:54 10° 305° (NW) 3,847 - -45.6°
Maximum altitude 22:18:30 58° 229° (SW) 1,882 - -43.5°
Exits shadow 22:24:43 25° 161° (SSE) 2,896 8.9 -42.1°
Drops below altitude 10° 22:28:20 10° 153° (SSE) 3,932 9.7 -41.3°
Sets 22:31:35 0° 149° (SSE) 4,922 10.3 -40.6°
